Back to catalog

THORAD AGENA D DEB

AlivePO
NORAD 4777·DEBRIS·🇺🇸 United States

Launched Apr 8, 1970 from Vandenberg Space Force Base

Loading…

Next Passes (next 24 hours)

TLE

FreshSource: Space-Track

Epoch: Sep 14, 2026, 13:41 UTC

1 04777U 70025DX  26257.57040603  .00000821  00000-0  68309-3 0  9996
2 04777  99.9462  17.5595 0006664 223.4047 199.9236 13.91926575819478

Track THORAD AGENA D DEB in real time with AllMySat

Download on the App Store